Regional Weather Roundup
Issued by NWS Newport/Morehead, NC

Current Version | Previous Version | Graphics & Text | Print | Product List | Glossary Off
Versions: 1 2 3 4 5 6 7 8 9 10 11 12 13 14 15 16 17 18 19 20 21 22 23 24 25 26 27 28 29 30 31 32 33 34 35 36 37 38 39 40 41 42 43 44 45 46 47 48 49 50

000
ASUS42 KMHX 230524
RWRMHX
WEATHER ROUNDUP FOR EASTERN NORTH CAROLINA
NATIONAL WEATHER SERVICE NEWPORT/MOREHEAD CITY NC
100 AM EDT SAT MAY 23 2015

NOTE: "FAIR" INDICATES FEW OR NO CLOUDS BELOW 12,000 FEET
WITH NO SIGNIFICANT WEATHER AND/OR OBSTRUCTIONS TO VISIBILITY

NCZ015>017-031-032-045>047-102-103-230600-
NORTH COAST

CITY           SKY/WX    TMP DP  RH WIND       PRES   REMARKS
EDENTON        CLEAR     63  55  75 SW8       30.28S
ELIZABETH CITY CLEAR     58  55  90 SW7       30.27R
KITTY HAWK     CLEAR     63  55  73 SW5       30.26S
MANTEO         CLEAR     64  54  70 SW10      30.28R

$$

NCZ045>047-081-094-103-104-230600-
CENTRAL COAST

CITY           SKY/WX    TMP DP  RH WIND       PRES   REMARKS
FRISCO         CLEAR     49  45  86 CALM      30.28S
SWANQUARTER      N/A     57 N/A N/A CALM      30.24S

$$

NCZ095-097-098-100-101-230600-
SOUTHERN COAST

CITY           SKY/WX    TMP DP  RH WIND       PRES   REMARKS
BEAUFORT       CLEAR     57  55  93 CALM      30.28S
CEDAR ISLAND     N/A     61 N/A N/A S2        30.33S
JACKSONVILLE   PTCLDY    56  54  93 CALM      30.28S
PINEY ISLAND   CLEAR    N/A N/A N/A SW3       30.28S
WILMINGTON     CLEAR     59  57  93 CALM      30.28S


$$

NCZ011>013-027>030-043-044-078>080-089-090>093-098-230600-
COASTAL PLAIN

CITY           SKY/WX    TMP DP  RH WIND       PRES   REMARKS
AHOSKIE        CLEAR     51  49  91 CALM      30.28S
CLINTON        CLEAR     55  55  97 CALM      30.30S
ELIZABETHTOWN  CLEAR     56  53  88 CALM      30.28F
GOLDSBORO      CLEAR     55  51  87 CALM      30.27R
GREENVILLE     CLEAR     55  55 100 CALM      30.29S
HAVELOCK       CLEAR     56  52  86 CALM      30.29S
KENANSVILLE    CLEAR     51  50  96 CALM      30.30S
KINSTON        CLEAR     52  51  96 CALM      30.29S
NEW BERN       FOG       55  51  86 CALM      30.30S VSB 3/4
RICHLANDS      CLEAR     52  46  82 CALM      30.29S
ROCKY MOUNT    CLEAR     51  50  96 CALM      30.28S
WASHINGTON     CLEAR     55  52  91 CALM      30.29S
WHITEVILLE     CLEAR     56  54  91 CALM      30.28F

$$

AMZ130-135-150-152-154-156-158-170-250-252-270-ANZ085-086-088-633-658-670-230600-
MARINE OBSERVATIONS

STATION/POSITION TIME  TEMP    WIND        PRES    WAVE   SWELL
                       AIR SEA DIR/SP/G            HT/PER HT/PER
                 (UTC) (F)     (DEG/KT/KT) (MB)    (FT/S) (FT/S)
CHESAPEAKE LIGHT 0500   65     240/ 13/ 13 1024.8
64 E VA BEACH    0450   62 60  220/ 10/ 12 1023.8    2/ 7   2/ 7
DUCK             0500   66 64  220/  7/ 11 1023.8
2 E DUCK         0511      65                N/A     2/ 7
OREGON INLET     0500   67 71  230/  8/  9 1024.9
13E OREGON INLT  0500      62                N/A     3/10
HATTERAS CG      0500   64 73  230/  1/  2 1024.8
DIAMOND BUOY     0450   68 77  330/  4/  6 1025.3    3/10   3/10
CAPE LOOKOUT     0500   66        CALM     1025.1
BEAUFORT LAB     0500   64 73  350/  2/  2 1024.6
27 SE WRIGHTSVLE 0500   67 77   40/  8/ 10   N/A
5 SE WRIGHTSVLE  0408   71 76   70/  8/ 12 1025.2
225 S CAPE HAT   0450   72 74   50/ 16/ 19 1023.2    5/ 9   3/ 9
41 SE CHARLESTON 0450   73 75   50/ 14/ 16 1023.8    3/ 6   2/ 8

$$


USA.gov is the U.S. government's official web portal to all federal, state and local government web resources and services.